"read_dt","SO2 (ppb)","flags","PMT voltage (V)","lamp voltage (V)","lamp intensity (Hz)","internal temp (C)","react chamber temp (C)","sample flow (l/min)","pres (mmHg)","SO2 bkg (ppb)","SO2 coefficient"
2015-05-09 00:00:00,1673E-3,5C000000,-0724,0832,12244,027.1,045.4,0.479,742.8,01.18,0.508
2015-05-09 00:01:00,1740E-3,5C000000,-0724,0832,12211,027.1,045.4,0.479,742.8,01.18,0.508
2015-05-09 00:02:00,1717E-3,5C000000,-0724,0832,12087,027.1,045.4,0.479,742.8,01.18,0.508
2015-05-09 00:03:00,1798E-3,5C000000,-0724,0831,12153,027.1,045.4,0.479,742.8,01.18,0.508
2015-05-09 00:04:00,1801E-3,5C000000,-0724,0832,12291,027.1,045.4,0.479,742.9,01.18,0.508
2015-05-09 00:05:00,1840E-3,5C000000,-0724,0832,12025,027.1,045.4,0.479,742.9,01.18,0.508
2015-05-09 00:06:00,1772E-3,5C000000,-0724,0832,12119,027.0,045.4,0.479,742.8,01.18,0.508
2015-05-09 00:07:00,1701E-3,5C000000,-0724,0832,12075,027.0,045.4,0.479,742.8,01.18,0.508
2015-05-09 00:08:00,1779E-3,5C000000,-0724,0831,12161,027.1,045.4,0.479,742.7,01.18,0.508
2015-05-09 00:09:00,1696E-3,5C000000,-0724,0833,11951,027.1,045.4,0.480,742.8,01.18,0.508
2015-05-09 00:10:00,1595E-3,5C000000,-0724,0832,12204,027.1,045.4,0.480,742.9,01.18,0.508
2015-05-09 00:11:00,1787E-3,5C000000,-0724,0833,12268,027.1,045.4,0.480,742.8,01.18,0.508
2015-05-09 00:12:00,1661E-3,5C000000,-0724,0831,12166,027.1,045.4,0.480,742.8,01.18,0.508
2015-05-09 00:13:00,1680E-3,5C000000,-0724,0832,12322,027.1,045.4,0.479,742.8,01.18,0.508
2015-05-09 00:14:00,1798E-3,5C000000,-0724,0832,12116,027.1,045.4,0.479,742.9,01.18,0.508
2015-05-09 00:15:00,1708E-3,5C000000,-0724,0832,12222,027.1,045.4,0.479,742.9,01.18,0.508
2015-05-09 00:16:00,1819E-3,5C000000,-0724,0832,12206,027.1,045.4,0.479,742.9,01.18,0.508
2015-05-09 00:17:00,1651E-3,5C000000,-0724,0832,12182,027.1,045.4,0.479,742.9,01.18,0.508
2015-05-09 00:18:00,1740E-3,5C000000,-0724,0832,11976,027.1,045.4,0.479,742.9,01.18,0.508
2015-05-09 00:19:00,1773E-3,5C000000,-0724,0831,12220,027.1,045.4,0.480,742.9,01.18,0.508
2015-05-09 00:20:00,1779E-3,5C000000,-0724,0832,12237,027.1,045.4,0.480,743.0,01.18,0.508
2015-05-09 00:21:00,1729E-3,5C000000,-0724,0832,12186,027.1,045.4,0.480,743.0,01.18,0.508
2015-05-09 00:22:00,1758E-3,5C000000,-0724,0832,12186,027.1,045.4,0.480,742.9,01.18,0.508
2015-05-09 00:23:00,1657E-3,5C000000,-0724,0832,12142,027.1,045.4,0.479,742.9,01.18,0.508
2015-05-09 00:24:00,1737E-3,5C000000,-0724,0833,12296,027.1,045.4,0.479,743.0,01.18,0.508
2015-05-09 00:25:00,1706E-3,5C000000,-0724,0831,12134,027.1,045.4,0.479,743.0,01.18,0.508
2015-05-09 00:26:00,1714E-3,5C000000,-0724,0833,12251,027.1,045.4,0.479,743.1,01.18,0.508
2015-05-09 00:27:00,1699E-3,5C000000,-0724,0832,12205,027.1,045.4,0.479,743.1,01.18,0.508
2015-05-09 00:28:00,1644E-3,5C000000,-0724,0832,11945,027.1,045.4,0.479,743.2,01.18,0.508
2015-05-09 00:29:00,1533E-3,5C000000,-0724,0833,12088,027.1,045.4,0.479,743.1,01.18,0.508
2015-05-09 00:30:00,1759E-3,5C000000,-0724,0832,12110,027.1,045.4,0.480,743.2,01.18,0.508
2015-05-09 00:31:00,1765E-3,5C000000,-0724,0833,11948,027.1,045.4,0.480,743.2,01.18,0.508
2015-05-09 00:32:00,1785E-3,5C000000,-0724,0832,12066,027.1,045.4,0.480,743.2,01.18,0.508
2015-05-09 00:33:00,1770E-3,5C000000,-0724,0832,12140,027.1,045.4,0.480,743.2,01.18,0.508
2015-05-09 00:34:00,1750E-3,5C000000,-0724,0832,12110,027.1,045.4,0.479,743.2,01.18,0.508
2015-05-09 00:35:00,1714E-3,5C000000,-0724,0832,12099,027.1,045.4,0.479,743.2,01.18,0.508
2015-05-09 00:36:00,1758E-3,5C000000,-0724,0831,12162,027.1,045.4,0.479,743.1,01.18,0.508
2015-05-09 00:37:00,1742E-3,5C000000,-0724,0831,12221,027.1,045.4,0.479,743.1,01.18,0.508
2015-05-09 00:38:00,1763E-3,5C000000,-0724,0832,12215,027.1,045.4,0.479,743.1,01.18,0.508
2015-05-09 00:39:00,1647E-3,5C000000,-0724,0833,12230,027.1,045.4,0.479,743.0,01.18,0.508
2015-05-09 00:40:00,1693E-3,5C000000,-0724,0832,12042,027.1,045.4,0.480,743.0,01.18,0.508
2015-05-09 00:41:00,1707E-3,5C000000,-0724,0831,12134,027.2,045.4,0.480,743.0,01.18,0.508
2015-05-09 00:42:00,1812E-3,5C000000,-0724,0832,12232,027.1,045.4,0.480,743.1,01.18,0.508
2015-05-09 00:43:00,1702E-3,5C000000,-0724,0832,12209,027.1,045.4,0.480,743.2,01.18,0.508
2015-05-09 00:44:00,1717E-3,5C000000,-0724,0832,12247,027.1,045.4,0.479,743.1,01.18,0.508
2015-05-09 00:45:00,1790E-3,5C000000,-0724,0831,12143,027.1,045.4,0.479,743.0,01.18,0.508
2015-05-09 00:46:00,1773E-3,5C000000,-0724,0832,12120,027.2,045.4,0.479,743.0,01.18,0.508
2015-05-09 00:47:00,1751E-3,5C000000,-0724,0831,12306,027.1,045.4,0.479,742.9,01.18,0.508
2015-05-09 00:48:00,1803E-3,5C000000,-0724,0832,12256,027.1,045.4,0.479,742.9,01.18,0.508
2015-05-09 00:49:00,1632E-3,5C000000,-0724,0831,12241,027.1,045.4,0.479,742.9,01.18,0.508
2015-05-09 00:50:00,1637E-3,5C000000,-0724,0831,12089,027.1,045.4,0.479,742.8,01.18,0.508
2015-05-09 00:51:00,1773E-3,5C000000,-0724,0831,12189,027.1,045.4,0.480,742.8,01.18,0.508
2015-05-09 00:52:00,1724E-3,5C000000,-0724,0830,12108,027.1,045.4,0.480,742.9,01.18,0.508
2015-05-09 00:53:00,1668E-3,5C000000,-0724,0832,12060,027.1,045.4,0.480,743.1,01.18,0.508
2015-05-09 00:54:00,1667E-3,5C000000,-0724,0833,12374,027.1,045.4,0.480,743.1,01.18,0.508
2015-05-09 00:55:00,1748E-3,5C000000,-0724,0831,12063,027.1,045.4,0.479,742.9,01.18,0.508
2015-05-09 00:56:00,1764E-3,5C000000,-0724,0832,12134,027.1,045.4,0.479,743.1,01.18,0.508
2015-05-09 00:57:00,1795E-3,5C000000,-0724,0831,12158,027.1,045.4,0.479,743.1,01.18,0.508
2015-05-09 00:58:00,1755E-3,5C000000,-0724,0832,12071,027.1,045.4,0.479,743.1,01.18,0.508
2015-05-09 00:59:00,1763E-3,5C000000,-0724,0832,12195,027.1,045.4,0.479,743.2,01.18,0.508
2015-05-09 01:00:00,1731E-3,5C000000,-0724,0831,12121,027.1,045.4,0.480,743.1,01.18,0.508
2015-05-09 01:01:00,1667E-3,5C000000,-0724,0831,12090,027.1,045.4,0.480,743.1,01.18,0.508
2015-05-09 01:02:00,1718E-3,5C000000,-0724,0832,12287,027.1,045.4,0.480,743.2,01.18,0.508
2015-05-09 01:03:00,1628E-3,5C000000,-0724,0831,12054,027.1,045.4,0.480,743.1,01.18,0.508
2015-05-09 01:04:00,1820E-3,5C000000,-0724,0832,12196,027.1,045.4,0.480,743.1,01.18,0.508
2015-05-09 01:05:00,1795E-3,5C000000,-0724,0831,11963,027.1,045.4,0.479,743.2,01.18,0.508
2015-05-09 01:06:00,1674E-3,5C000000,-0724,0831,12146,027.1,045.4,0.479,743.1,01.18,0.508
2015-05-09 01:07:00,1741E-3,5C000000,-0724,0833,12279,027.1,045.4,0.479,743.0,01.18,0.508
2015-05-09 01:08:00,1601E-3,5C000000,-0724,0832,12102,027.1,045.4,0.479,743.1,01.18,0.508
2015-05-09 01:09:00,1657E-3,5C000000,-0724,0832,11993,027.1,045.4,0.480,743.1,01.18,0.508
2015-05-09 01:10:00,1641E-3,5C000000,-0724,0832,12134,027.1,045.4,0.480,743.1,01.18,0.508
2015-05-09 01:11:00,1778E-3,5C000000,-0724,0832,12308,027.1,045.4,0.480,743.0,01.18,0.508
2015-05-09 01:12:00,1739E-3,5C000000,-0724,0833,12117,027.1,045.4,0.480,743.0,01.18,0.508
2015-05-09 01:13:00,1689E-3,5C000000,-0724,0832,12269,027.1,045.4,0.479,742.9,01.18,0.508
2015-05-09 01:14:00,1768E-3,5C000000,-0724,0833,12230,027.1,045.4,0.479,742.8,01.18,0.508
2015-05-09 01:15:00,1707E-3,5C000000,-0724,0832,12173,027.1,045.4,0.479,742.8,01.18,0.508
2015-05-09 01:16:00,1831E-3,5C000000,-0724,0831,12171,027.1,045.4,0.479,742.9,01.18,0.508
2015-05-09 01:17:00,1655E-3,5C000000,-0724,0832,12274,027.1,045.4,0.479,742.9,01.18,0.508
2015-05-09 01:18:00,1752E-3,5C000000,-0724,0831,12126,027.1,045.4,0.479,742.9,01.18,0.508
2015-05-09 01:19:00,1754E-3,5C000000,-0724,0831,12208,027.1,045.4,0.480,742.9,01.18,0.508
2015-05-09 01:20:00,1727E-3,5C000000,-0724,0832,12205,027.1,045.4,0.480,743.0,01.18,0.508
2015-05-09 01:21:00,1722E-3,5C000000,-0724,0831,12250,027.1,045.4,0.480,743.1,01.18,0.508
2015-05-09 01:22:00,1760E-3,5C000000,-0724,0831,12129,027.1,045.4,0.480,743.1,01.18,0.508
2015-05-09 01:23:00,1562E-3,5C000000,-0724,0832,12203,027.1,045.4,0.479,743.1,01.18,0.508
2015-05-09 01:24:00,1573E-3,5C000000,-0724,0831,12106,027.1,045.4,0.479,743.2,01.18,0.508
2015-05-09 01:25:00,1759E-3,5C000000,-0724,0832,12275,027.1,045.4,0.479,743.0,01.18,0.508
2015-05-09 01:26:00,1838E-3,5C000000,-0724,0832,12299,027.1,045.4,0.479,743.2,01.18,0.508
2015-05-09 01:27:00,1799E-3,5C000000,-0724,0831,12232,027.1,045.4,0.479,743.1,01.18,0.508
2015-05-09 01:28:00,1678E-3,5C000000,-0724,0831,12235,027.1,045.4,0.480,743.3,01.18,0.508
2015-05-09 01:29:00,1842E-3,5C000000,-0724,0831,12027,027.1,045.4,0.480,743.2,01.18,0.508
2015-05-09 01:30:00,1811E-3,5C000000,-0724,0831,12115,027.1,045.4,0.480,743.3,01.18,0.508
2015-05-09 01:31:00,1599E-3,5C000000,-0724,0832,12093,027.1,045.4,0.479,743.2,01.18,0.508
2015-05-09 01:32:00,1732E-3,5C000000,-0724,0832,12050,027.1,045.4,0.479,743.2,01.18,0.508
2015-05-09 01:33:00,1675E-3,5C000000,-0724,0832,12169,027.1,045.4,0.479,743.2,01.18,0.508
2015-05-09 01:34:00,1748E-3,5C000000,-0724,0831,12268,027.1,045.4,0.479,743.3,01.18,0.508
2015-05-09 01:35:00,1697E-3,5C000000,-0724,0831,12192,027.1,045.4,0.479,743.3,01.18,0.508
2015-05-09 01:36:00,1680E-3,5C000000,-0724,0832,12142,027.1,045.4,0.479,743.1,01.18,0.508
2015-05-09 01:37:00,1682E-3,5C000000,-0724,0831,12279,027.1,045.4,0.480,743.1,01.18,0.508
2015-05-09 01:38:00,1758E-3,5C000000,-0724,0831,12138,027.1,045.4,0.480,743.1,01.18,0.508
2015-05-09 01:39:00,1778E-3,5C000000,-0724,0831,12041,027.1,045.4,0.480,743.0,01.18,0.508
2015-05-09 01:40:00,1698E-3,5C000000,-0724,0831,12162,027.1,045.4,0.479,743.0,01.18,0.508
2015-05-09 01:41:00,1730E-3,5C000000,-0724,0831,12325,027.1,045.4,0.479,743.1,01.18,0.508
2015-05-09 01:42:00,1799E-3,5C000000,-0724,0831,12149,027.1,045.4,0.479,743.1,01.18,0.508
2015-05-09 01:43:00,1755E-3,5C000000,-0724,0831,12176,027.1,045.4,0.479,742.9,01.18,0.508
2015-05-09 01:44:00,1763E-3,5C000000,-0724,0831,12365,027.1,045.4,0.479,742.9,01.18,0.508
2015-05-09 01:45:00,1774E-3,5C000000,-0724,0831,12263,027.1,045.4,0.479,743.0,01.18,0.508
2015-05-09 01:46:00,1646E-3,5C000000,-0724,0832,12199,027.1,045.4,0.480,743.0,01.18,0.508
2015-05-09 01:47:00,1773E-3,5C000000,-0724,0831,12230,027.1,045.4,0.480,743.0,01.18,0.508
2015-05-09 01:48:00,1812E-3,5C000000,-0724,0831,12147,027.1,045.4,0.480,743.1,01.18,0.508
2015-05-09 01:49:00,1750E-3,5C000000,-0724,0832,12104,027.1,045.4,0.480,743.2,01.18,0.508
2015-05-09 01:50:00,1826E-3,5C000000,-0724,0830,12278,027.1,045.5,0.479,743.2,01.18,0.508
2015-05-09 01:51:00,1793E-3,5C000000,-0724,0831,12155,027.1,045.4,0.479,743.1,01.18,0.508
2015-05-09 01:52:00,1796E-3,5C000000,-0724,0832,12076,027.1,045.4,0.479,743.2,01.18,0.508
2015-05-09 01:53:00,1750E-3,5C000000,-0724,0831,12258,027.1,045.4,0.479,743.1,01.18,0.508
2015-05-09 01:54:00,1728E-3,5C000000,-0724,0832,12204,027.1,045.4,0.479,743.1,01.18,0.508
2015-05-09 01:55:00,1671E-3,5C000000,-0724,0831,12089,027.1,045.4,0.480,743.2,01.18,0.508
2015-05-09 01:56:00,1758E-3,5C000000,-0724,0831,12206,027.1,045.4,0.480,743.2,01.18,0.508
2015-05-09 01:57:00,1735E-3,5C000000,-0724,0831,12123,027.1,045.4,0.480,743.1,01.18,0.508
2015-05-09 01:58:00,1691E-3,5C000000,-0724,0831,12235,027.1,045.4,0.479,743.2,01.18,0.508
2015-05-09 01:59:00,1816E-3,5C000000,-0724,0831,12163,027.1,045.4,0.479,743.3,01.18,0.508
2015-05-09 02:00:00,1703E-3,5C000000,-0724,0831,12154,027.1,045.4,0.479,743.2,01.18,0.508
2015-05-09 02:01:00,1898E-3,5C000000,-0724,0831,12146,027.1,045.4,0.479,743.2,01.18,0.508
2015-05-09 02:02:00,1795E-3,5C000000,-0724,0831,12187,027.2,045.4,0.479,743.2,01.18,0.508
2015-05-09 02:03:00,1676E-3,5C000000,-0724,0830,12299,027.1,045.4,0.480,743.1,01.18,0.508
2015-05-09 02:04:00,1827E-3,5C000000,-0724,0831,11966,027.1,045.4,0.480,743.2,01.18,0.508
2015-05-09 02:05:00,1694E-3,5C000000,-0724,0832,12007,027.1,045.4,0.480,743.2,01.18,0.508
2015-05-09 02:06:00,1723E-3,5C000000,-0724,0832,12221,027.1,045.4,0.480,743.2,01.18,0.508
2015-05-09 02:07:00,1761E-3,5C000000,-0724,0831,12157,027.1,045.4,0.479,743.1,01.18,0.508
2015-05-09 02:08:00,1788E-3,5C000000,-0724,0831,12326,027.1,045.4,0.479,743.2,01.18,0.508
2015-05-09 02:09:00,1737E-3,5C000000,-0724,0831,12342,027.1,045.4,0.479,743.1,01.18,0.508
2015-05-09 02:10:00,1639E-3,5C000000,-0724,0832,12025,027.1,045.4,0.479,743.2,01.18,0.508
2015-05-09 02:11:00,1697E-3,5C000000,-0724,0831,12144,027.1,045.4,0.479,743.1,01.18,0.508
2015-05-09 02:12:00,1708E-3,5C000000,-0724,0831,12374,027.1,045.4,0.480,743.1,01.18,0.508
2015-05-09 02:13:00,1680E-3,5C000000,-0724,0830,12247,027.1,045.4,0.480,743.3,01.18,0.508
2015-05-09 02:14:00,1739E-3,5C000000,-0724,0831,12019,027.1,045.4,0.480,743.2,01.18,0.508
2015-05-09 02:15:00,1854E-3,5C000000,-0724,0832,12224,027.1,045.4,0.480,743.2,01.18,0.508
2015-05-09 02:16:00,1714E-3,5C000000,-0724,0831,12179,027.1,045.4,0.479,743.3,01.18,0.508
2015-05-09 02:17:00,1798E-3,5C000000,-0724,0832,12277,027.1,045.4,0.479,743.1,01.18,0.508
2015-05-09 02:18:00,1795E-3,5C000000,-0724,0831,12204,027.1,045.4,0.479,743.3,01.18,0.508
2015-05-09 02:19:00,1723E-3,5C000000,-0724,0832,12168,027.1,045.4,0.479,743.1,01.18,0.508
2015-05-09 02:20:00,1796E-3,5C000000,-0724,0831,12179,027.1,045.4,0.480,743.2,01.18,0.508
2015-05-09 02:21:00,1843E-3,5C000000,-0724,0831,12159,027.1,045.4,0.480,743.3,01.18,0.508
2015-05-09 02:22:00,1571E-3,5C000000,-0724,0832,12235,027.1,045.4,0.480,743.4,01.18,0.508
2015-05-09 02:23:00,1786E-3,5C000000,-0724,0830,12405,027.1,045.4,0.479,743.3,01.18,0.508
2015-05-09 02:24:00,1740E-3,5C000000,-0724,0831,12180,027.1,045.4,0.479,743.2,01.18,0.508
2015-05-09 02:25:00,1769E-3,5C000000,-0724,0832,12137,027.1,045.4,0.479,743.3,01.18,0.508
2015-05-09 02:26:00,1668E-3,5C000000,-0724,0831,12176,027.1,045.4,0.479,743.2,01.18,0.508
2015-05-09 02:27:00,1755E-3,5C000000,-0724,0831,12199,027.1,045.4,0.479,743.3,01.18,0.508
2015-05-09 02:28:00,1704E-3,5C000000,-0724,0831,12237,027.1,045.4,0.480,743.2,01.18,0.508
2015-05-09 02:29:00,1724E-3,5C000000,-0724,0831,12044,027.1,045.4,0.480,743.2,01.18,0.508
2015-05-09 02:30:00,1757E-3,5C000000,-0724,0831,12180,027.1,045.4,0.480,743.2,01.18,0.508
2015-05-09 02:31:00,1676E-3,5C000000,-0724,0831,12049,027.0,045.4,0.479,743.1,01.18,0.508
2015-05-09 02:32:00,1609E-3,5C000000,-0724,0832,12358,027.1,045.4,0.479,743.1,01.18,0.508
2015-05-09 02:33:00,1588E-3,5C000000,-0724,0831,12236,027.1,045.4,0.479,743.0,01.18,0.508
2015-05-09 02:34:00,1568E-3,5C000000,-0724,0832,12200,027.1,045.4,0.479,743.0,01.18,0.508
2015-05-09 02:35:00,1644E-3,5C000000,-0724,0831,12156,027.1,045.4,0.479,743.0,01.18,0.508
2015-05-09 02:36:00,1638E-3,5C000000,-0724,0833,12201,027.1,045.4,0.480,743.0,01.18,0.508
2015-05-09 02:37:00,1673E-3,5C000000,-0724,0831,12224,027.1,045.4,0.480,743.2,01.18,0.508
2015-05-09 02:38:00,1746E-3,5C000000,-0724,0833,12284,027.1,045.4,0.480,743.0,01.18,0.508
2015-05-09 02:39:00,1697E-3,5C000000,-0724,0831,12152,027.1,045.4,0.480,743.1,01.18,0.508
2015-05-09 02:40:00,1692E-3,5C000000,-0724,0832,12156,027.1,045.4,0.479,743.0,01.18,0.508
2015-05-09 02:41:00,1627E-3,5C000000,-0724,0831,12104,027.1,045.4,0.479,743.0,01.18,0.508
2015-05-09 02:42:00,1810E-3,5C000000,-0724,0832,12155,027.1,045.4,0.479,743.1,01.18,0.508
2015-05-09 02:43:00,1783E-3,5C000000,-0724,0832,12055,027.1,045.4,0.479,743.0,01.18,0.508
2015-05-09 02:44:00,1915E-3,5C000000,-0724,0832,12165,027.1,045.4,0.480,743.0,01.18,0.508
2015-05-09 02:45:00,1683E-3,5C000000,-0724,0831,12285,027.1,045.4,0.480,742.9,01.18,0.508
2015-05-09 02:46:00,1693E-3,5C000000,-0724,0831,12191,027.1,045.4,0.480,743.0,01.18,0.508
2015-05-09 02:47:00,1811E-3,5C000000,-0724,0831,12169,027.1,045.4,0.479,743.0,01.18,0.508
2015-05-09 02:48:00,1675E-3,5C000000,-0724,0831,12214,027.1,045.4,0.479,743.0,01.18,0.508
2015-05-09 02:49:00,1711E-3,5C000000,-0724,0832,12379,027.1,045.4,0.479,743.1,01.18,0.508
2015-05-09 02:50:00,1755E-3,5C000000,-0724,0831,12039,027.1,045.4,0.479,743.0,01.18,0.508
2015-05-09 02:51:00,1781E-3,5C000000,-0724,0831,12047,027.1,045.4,0.479,743.1,01.18,0.508
2015-05-09 02:52:00,1789E-3,5C000000,-0724,0831,12013,027.1,045.4,0.479,743.1,01.18,0.508
2015-05-09 02:53:00,1810E-3,5C000000,-0724,0831,12131,027.1,045.4,0.480,743.2,01.18,0.508
2015-05-09 02:54:00,1671E-3,5C000000,-0724,0832,12257,027.1,045.4,0.480,743.1,01.18,0.508
2015-05-09 02:55:00,1692E-3,5C000000,-0724,0832,12122,027.1,045.4,0.480,743.0,01.18,0.508
2015-05-09 02:56:00,1732E-3,5C000000,-0724,0831,12121,027.1,045.4,0.479,743.1,01.18,0.508
2015-05-09 02:57:00,1710E-3,5C000000,-0724,0831,12222,027.1,045.4,0.479,743.2,01.18,0.508
2015-05-09 02:58:00,1679E-3,5C000000,-0724,0830,11880,027.1,045.4,0.479,743.2,01.18,0.508
2015-05-09 02:59:00,1803E-3,5C000000,-0724,0831,12267,027.1,045.4,0.479,743.1,01.18,0.508
2015-05-09 03:00:00,1731E-3,5C000000,-0724,0832,12272,027.1,045.4,0.479,743.1,01.18,0.508
2015-05-09 03:01:00,1716E-3,5C000000,-0724,0831,11935,027.1,045.4,0.480,743.1,01.18,0.508
2015-05-09 03:02:00,1802E-3,5C000000,-0724,0831,12329,027.1,045.4,0.480,743.2,01.18,0.508
2015-05-09 03:03:00,1875E-3,5C000000,-0724,0831,11959,027.2,045.4,0.479,743.2,01.18,0.508
2015-05-09 03:04:00,1834E-3,5C000000,-0724,0831,12081,027.1,045.4,0.479,743.1,01.18,0.508
2015-05-09 03:05:00,1816E-3,5C000000,-0724,0831,12159,027.2,045.4,0.479,743.2,01.18,0.508
2015-05-09 03:06:00,1715E-3,5C000000,-0724,0832,12210,027.1,045.4,0.479,743.1,01.18,0.508
2015-05-09 03:07:00,1734E-3,5C000000,-0724,0832,12041,027.1,045.4,0.479,743.3,01.18,0.508
2015-05-09 03:08:00,1648E-3,5C000000,-0724,0831,12174,027.1,045.4,0.479,743.3,01.18,0.508
2015-05-09 03:09:00,1646E-3,5C000000,-0724,0832,12201,027.1,045.4,0.480,743.2,01.18,0.508
2015-05-09 03:10:00,1857E-3,5C000000,-0724,0832,12069,027.1,045.4,0.480,743.1,01.18,0.508
2015-05-09 03:11:00,1720E-3,5C000000,-0724,0832,12109,027.1,045.4,0.479,743.1,01.18,0.508
2015-05-09 03:12:00,1867E-3,5C000000,-0724,0833,12174,027.1,045.4,0.479,743.2,01.18,0.508
2015-05-09 03:13:00,1700E-3,5C000000,-0724,0832,12050,027.2,045.4,0.479,743.2,01.18,0.508
2015-05-09 03:14:00,1688E-3,5C000000,-0724,0832,12224,027.1,045.4,0.479,743.1,01.18,0.508
2015-05-09 03:15:00,1766E-3,5C000000,-0724,0832,12332,027.1,045.4,0.479,743.1,01.18,0.508
2015-05-09 03:16:00,1808E-3,5C000000,-0724,0832,12191,027.1,045.4,0.479,743.1,01.18,0.508
2015-05-09 03:17:00,1799E-3,5C000000,-0724,0832,12290,027.1,045.4,0.479,743.1,01.18,0.508
2015-05-09 03:18:00,1725E-3,5C000000,-0724,0831,12138,027.2,045.4,0.480,743.1,01.18,0.508
2015-05-09 03:19:00,1766E-3,5C000000,-0724,0832,12219,027.2,045.4,0.479,743.2,01.18,0.508
2015-05-09 03:20:00,1722E-3,5C000000,-0724,0832,12222,027.1,045.4,0.479,743.1,01.18,0.508
2015-05-09 03:21:00,1676E-3,5C000000,-0724,0832,12202,027.1,045.4,0.479,743.2,01.18,0.508
2015-05-09 03:22:00,1751E-3,5C000000,-0724,0832,12162,027.1,045.4,0.479,743.2,01.18,0.508
2015-05-09 03:23:00,1682E-3,5C000000,-0724,0832,12216,027.1,045.4,0.479,743.2,01.18,0.508
2015-05-09 03:24:00,1668E-3,5C000000,-0724,0831,12142,027.1,045.4,0.479,743.1,01.18,0.508
2015-05-09 03:25:00,1606E-3,5C000000,-0724,0832,12241,027.1,045.4,0.480,743.1,01.18,0.508
2015-05-09 03:26:00,1702E-3,5C000000,-0724,0832,12113,027.1,045.4,0.479,743.0,01.18,0.508
2015-05-09 03:27:00,1826E-3,5C000000,-0724,0832,12229,027.1,045.4,0.479,743.2,01.18,0.508
2015-05-09 03:28:00,1780E-3,5C000000,-0724,0832,12364,027.1,045.4,0.479,743.1,01.18,0.508
2015-05-09 03:29:00,1829E-3,5C000000,-0724,0831,12104,027.1,045.4,0.479,743.0,01.18,0.508
2015-05-09 03:30:00,1737E-3,5C000000,-0724,0832,12214,027.1,045.4,0.479,743.0,01.18,0.508
2015-05-09 03:31:00,1784E-3,5C000000,-0724,0832,12356,027.1,045.4,0.480,743.0,01.18,0.508
2015-05-09 03:32:00,1637E-3,5C000000,-0724,0832,12165,027.1,045.4,0.480,742.9,01.18,0.508
2015-05-09 03:33:00,1595E-3,5C000000,-0724,0832,12190,027.1,045.4,0.479,742.9,01.18,0.508
2015-05-09 03:34:00,1772E-3,5C000000,-0724,0832,12091,027.1,045.4,0.479,742.9,01.18,0.508
2015-05-09 03:35:00,1751E-3,5C000000,-0724,0831,12232,027.1,045.4,0.479,742.9,01.18,0.508
2015-05-09 03:36:00,1772E-3,5C000000,-0724,0830,12222,027.1,045.4,0.479,742.8,01.18,0.508
2015-05-09 03:37:00,1716E-3,5C000000,-0724,0831,12220,027.1,045.4,0.479,743.1,01.18,0.508
2015-05-09 03:38:00,1696E-3,5C000000,-0724,0831,12299,027.1,045.4,0.479,742.9,01.18,0.508
2015-05-09 03:39:00,1717E-3,5C000000,-0724,0832,12354,027.1,045.4,0.479,743.0,01.18,0.508
2015-05-09 03:40:00,1686E-3,5C000000,-0724,0832,12215,027.1,045.4,0.480,743.0,01.18,0.508
2015-05-09 03:41:00,1779E-3,5C000000,-0724,0831,12163,027.1,045.4,0.479,742.9,01.18,0.508
2015-05-09 03:42:00,1814E-3,5C000000,-0724,0831,12103,027.1,045.4,0.479,743.1,01.18,0.508
2015-05-09 03:43:00,1613E-3,5C000000,-0724,0831,12246,027.1,045.4,0.479,743.0,01.18,0.508
2015-05-09 03:44:00,1806E-3,5C000000,-0724,0831,12159,027.1,045.4,0.479,743.1,01.18,0.508
2015-05-09 03:45:00,1711E-3,5C000000,-0724,0832,12233,027.1,045.4,0.479,743.1,01.18,0.508
2015-05-09 03:46:00,1620E-3,5C000000,-0724,0831,12032,027.1,045.4,0.479,743.1,01.18,0.508
2015-05-09 03:47:00,1697E-3,5C000000,-0724,0831,12086,027.1,045.4,0.479,743.1,01.18,0.508
2015-05-09 03:48:00,1608E-3,5C000000,-0724,0831,12277,027.1,045.4,0.479,743.0,01.18,0.508
2015-05-09 03:49:00,1696E-3,5C000000,-0724,0831,12129,027.1,045.4,0.479,743.0,01.18,0.508
2015-05-09 03:50:00,1736E-3,5C000000,-0724,0831,12137,027.1,045.4,0.479,743.0,01.18,0.508
2015-05-09 03:51:00,1739E-3,5C000000,-0724,0831,12180,027.1,045.4,0.479,743.1,01.18,0.508
2015-05-09 03:52:00,1762E-3,5C000000,-0724,0831,12396,027.1,045.4,0.479,743.1,01.18,0.508
2015-05-09 03:53:00,1820E-3,5C000000,-0724,0832,12161,027.1,045.4,0.479,743.1,01.18,0.508
2015-05-09 03:54:00,1815E-3,5C000000,-0724,0833,12166,027.1,045.4,0.479,743.0,01.18,0.508
2015-05-09 03:55:00,1726E-3,5C000000,-0724,0832,12068,027.1,045.4,0.480,743.0,01.18,0.508
2015-05-09 03:56:00,1641E-3,5C000000,-0724,0831,12204,027.1,045.4,0.479,743.1,01.18,0.508
2015-05-09 03:57:00,1617E-3,5C000000,-0724,0832,12317,027.1,045.4,0.479,743.1,01.18,0.508
2015-05-09 03:58:00,1723E-3,5C000000,-0724,0831,12206,027.1,045.4,0.479,743.1,01.18,0.508
2015-05-09 03:59:00,1828E-3,5C000000,-0724,0831,12214,027.1,045.4,0.479,743.1,01.18,0.508
2015-05-09 04:00:00,1728E-3,5C000000,-0724,0830,12302,027.1,045.4,0.479,743.1,01.18,0.508
2015-05-09 04:01:00,1781E-3,5C000000,-0724,0831,12082,027.1,045.4,0.479,743.2,01.18,0.508
2015-05-09 04:02:00,1866E-3,5C000000,-0724,0832,12125,027.1,045.4,0.479,743.0,01.18,0.508
2015-05-09 04:03:00,1740E-3,5C000000,-0724,0831,12195,027.1,045.4,0.479,743.1,01.18,0.508
2015-05-09 04:04:00,1623E-3,5C000000,-0724,0832,12194,027.1,045.4,0.479,743.1,01.18,0.508
2015-05-09 04:05:00,1710E-3,5C000000,-0724,0832,11985,027.1,045.4,0.479,742.9,01.18,0.508
2015-05-09 04:06:00,1755E-3,5C000000,-0724,0832,12202,027.1,045.4,0.479,743.0,01.18,0.508
2015-05-09 04:07:00,1807E-3,5C000000,-0724,0831,12144,027.1,045.4,0.479,742.8,01.18,0.508
2015-05-09 04:08:00,1775E-3,5C000000,-0724,0831,12199,027.1,045.4,0.479,743.0,01.18,0.508
2015-05-09 04:09:00,1691E-3,5C000000,-0724,0831,12166,027.1,045.4,0.479,743.0,01.18,0.508
2015-05-09 04:10:00,1699E-3,5C000000,-0724,0831,12279,027.1,045.4,0.480,743.0,01.18,0.508
2015-05-09 04:11:00,1659E-3,5C000000,-0724,0831,12101,027.1,045.4,0.480,743.0,01.18,0.508
2015-05-09 04:12:00,1747E-3,5C000000,-0724,0832,12310,027.1,045.4,0.479,743.0,01.18,0.508
2015-05-09 04:13:00,1711E-3,5C000000,-0724,0831,12023,027.1,045.4,0.479,743.0,01.18,0.508
2015-05-09 04:14:00,1623E-3,5C000000,-0724,0833,12275,027.1,045.4,0.479,743.0,01.18,0.508
2015-05-09 04:15:00,1787E-3,5C000000,-0724,0831,12110,027.1,045.4,0.479,743.2,01.18,0.508
2015-05-09 04:16:00,1708E-3,5C000000,-0724,0831,12132,027.1,045.4,0.479,743.2,01.18,0.508
2015-05-09 04:17:00,1707E-3,5C000000,-0724,0831,12056,027.1,045.4,0.479,743.1,01.18,0.508
2015-05-09 04:18:00,1794E-3,5C000000,-0724,0832,12047,027.1,045.4,0.479,743.1,01.18,0.508
2015-05-09 04:19:00,1738E-3,5C000000,-0724,0832,12201,027.2,045.4,0.479,743.0,01.18,0.508
2015-05-09 04:20:00,1886E-3,5C000000,-0724,0831,12175,027.1,045.4,0.479,743.0,01.18,0.508